[[{"header":{"parameterUnit":"m.s-1","parameterCategory":1,"la1":30.2991,"la2":30.254,"lo1":-89.0895,"lo2":-89.0444,"dy":0.0017,"dx":0.0017,"nx":28,"ny":28,"refTime":"2025-07-31T03:00:00:Z","depth":0,"parameterNumber":2,"parameterNumberName":"U-component_of_WINDS"},"data":[0,0,0,0,0,0,0,0,0,0,0,0,0,0,0,0,0,0,0,0,0,0,0,0,0,0,0,0,0,0,0,0,0,0,0,0,0,0,0,0,0,0,0,0,0,0,0,0,0,0,0,0,0,0,0,0,0,0,3.3544,3.3545,0,3.3656,3.3657,3.3658,3.3621,3.3619,3.3616,3.3614,3.3728,3.3733,3.3738,0,0,0,0,0,0,0,0,0,0,0,0,0,3.3297,3.3302,3.3544,3.3545,3.3547,3.3656,3.3657,3.3659,3.3622,3.3619,3.3616,3.3613,3.3726,3.3732,3.3739,0,0,0,0,0,0,0,0,0,0,0,0,0,3.3406,3.3303,3.3543,3.3541,3.3542,3.3655,3.3657,3.3659,3.3622,3.3619,3.3615,3.3612,3.3724,3.3732,3.374,3.3861,0,0,3.3764,3.3767,0,0,0,0,0,0,0,0,3.34,3.3415,3.354,3.3542,3.3543,3.3621,3.3612,3.3727,3.3623,3.3592,3.3614,3.361,3.3695,3.3705,3.3734,3.3867,3.3872,3.3765,3.3769,3.3773,3.3775,0,0,0,0,0,0,0,3.3392,3.341,3.3588,3.3542,3.3544,3.3534,3.3546,3.3633,3.3662,3.3594,3.3592,3.3606,3.3695,3.3727,3.3737,3.3873,3.3764,3.3771,3.3776,3.3779,3.4111,3.4115,0,0,0,0,0,0,3.3384,3.3404,3.3584,3.3591,3.3461,3.3542,3.3555,3.36,3.3661,3.3667,3.3609,3.3604,3.3715,3.3727,3.374,3.3886,3.3773,3.378,3.3785,3.4107,3.4112,3.4116,0,0,0,0,0,0,3.3379,3.3401,3.358,3.3497,3.3519,3.355,3.3601,3.3604,3.3635,3.3672,3.3677,3.3636,3.3712,3.3729,3.3832,3.389,3.3784,3.3791,3.4102,3.4108,3.4114,3.418,0,0,0,0,0,0,3.3372,3.3399,3.3446,3.3498,3.3524,3.367,3.3604,3.3608,3.3649,3.3643,3.3699,3.3705,3.3711,3.382,3.3839,3.3899,3.3797,3.4097,3.4105,3.4112,3.4172,3.4187,3.42,0,0,0,0,0,3.3363,3.346,3.3448,3.347,3.3583,3.3673,3.3687,3.3693,3.3654,3.3701,3.3725,3.3703,3.3881,3.3831,3.3852,3.3915,3.4093,3.4103,3.4111,3.4166,3.4184,3.42,0,0,0,0,0,0,3.3412,3.3466,3.3454,3.3571,3.3618,3.3667,3.3726,3.3712,3.3771,3.3763,3.3767,3.378,3.3885,3.3911,3.3854,3.4036,3.3981,3.3995,3.4015,3.4033,3.4046,3.4037,3.3804,0,0,0,0,0,3.3437,3.3506,3.3549,3.3648,3.3672,3.3695,3.3735,3.3735,3.3784,3.3803,3.3834,3.3882,3.3949,3.3992,3.4056,3.4176,3.4188,3.423,3.4244,3.4255,3.4267,3.4332,3.4351,3.4146,3.4146,3.4146,0,0,3.3488,3.3526,3.3569,3.3659,3.3695,3.3766,3.3712,3.3789,3.3842,3.3815,3.3913,3.3938,3.3991,3.4103,3.4154,3.4128,3.4326,3.4267,3.4275,3.4281,3.4343,3.4362,3.438,3.4152,3.4151,3.415,0,0,3.3617,3.3653,3.3738,3.3776,3.3832,3.3847,3.3868,3.3919,3.3935,3.4034,3.4015,3.4077,3.4192,3.4231,3.4265,3.441,3.4391,3.4431,3.4502,3.4565,3.4581,3.4596,3.4646,3.4665,3.4442,3.4442,3.4442,0,3.3673,3.3779,3.3784,3.3863,3.3903,3.3882,3.3969,3.4005,3.4079,3.4106,3.4076,3.422,3.4254,3.4375,3.441,3.4439,3.4462,3.4423,3.4579,3.4593,3.4607,3.4655,3.4674,3.4447,3.4446,3.4446,3.4445,0,3.3845,3.3919,3.3981,3.4053,3.41,3.4183,3.42,3.4247,3.4243,3.4262,3.4362,3.4403,3.4474,3.4503,3.4501,3.4624,3.4605,3.4577,3.4522,3.463,3.4676,3.4694,3.4453,3.4451,3.445,3.4449,0,0,3.4006,3.4081,3.4103,3.4136,3.4196,3.4253,3.4335,3.4405,3.4444,3.4496,3.4564,3.4662,3.4636,3.4676,3.4678,3.4734,3.4844,3.4698,3.47,3.4723,3.4981,3.5001,3.5023,3.4833,3.4837,3.484,3.4976,0,3.4139,3.4283,3.429,3.442,3.4488,3.447,3.4541,3.4586,3.4605,3.4665,3.4687,3.4755,3.4717,3.474,3.4795,3.4819,3.4896,3.481,3.4896,3.4899,3.4881,3.5046,3.5068,3.5195,3.4994,3.4997,3.5,0,3.4313,3.4371,3.4508,3.4558,3.4587,3.4651,3.4715,3.4774,3.4824,3.4834,3.4879,3.4872,3.4956,3.4899,3.5013,3.4954,3.499,3.5007,3.5012,3.5019,3.4955,3.5057,3.5236,3.5254,3.5028,3.5025,3.5023,0,3.4416,3.4528,3.4624,3.4652,3.4714,3.4759,3.4787,3.4834,3.4875,3.4932,3.4959,3.5024,3.506,3.5111,3.5123,3.508,3.5237,3.5181,3.5247,3.5246,3.5279,3.5277,3.5465,3.5305,3.5304,3.5304,3.5304,0,3.4563,3.4647,3.4671,3.473,3.4824,3.4831,3.4924,3.4949,3.4991,3.5054,3.5043,3.5102,3.5114,3.5177,3.5187,3.5279,3.5296,3.5306,3.5307,3.5306,3.5305,3.5328,3.5319,3.5309,3.5308,3.5307,3.5306,0,3.4693,3.4713,3.4816,3.4866,3.4881,3.4948,3.4991,3.5047,3.5065,3.5146,3.5165,3.5193,3.5266,3.5283,3.537,3.5376,3.5486,3.5479,3.5468,3.5468,3.5532,3.5525,3.5741,3.577,3.5592,3.5594,3.5595,0,3.4785,3.485,3.4907,3.4948,3.4978,3.5046,3.5088,3.5098,3.5143,3.5205,3.5254,3.5326,3.5383,3.55,3.5528,3.5594,3.5588,3.5659,3.5598,3.5595,3.5588,3.5584,3.559,3.5671,3.5673,3.5674,3.5675,0,3.4946,3.4952,3.5014,3.5079,3.513,3.5182,3.5232,3.5266,3.5283,3.5334,3.5408,3.5453,3.5541,3.5612,3.5678,3.5707,3.5694,3.5695,3.5713,3.5712,3.5703,3.5708,3.5499,3.5689,3.5688,3.5687,3.5686,3.5686,3.5059,3.5115,3.5164,3.5233,3.5272,3.5318,3.5373,3.5399,3.5461,3.5534,3.5536,3.5617,3.5665,3.5753,3.5786,3.5849,3.5827,3.5854,3.586,3.5867,3.5872,3.5694,3.5861,3.5861,3.586,3.586,3.586,0,3.5218,3.5249,3.5312,3.5382,3.5436,3.542,3.5474,3.552,3.5592,3.5638,3.5695,3.578,3.5849,3.5883,3.5951,3.5995,3.5991,3.6012,3.6008,3.6015,3.5888,3.5865,3.6014,3.6014,3.6014,3.6014,3.6014,3.6014,3.5307,3.5401,3.5413,3.5526,3.5556,3.5635,3.5667,3.571,3.5747,3.5843,3.59,3.5922,3.5963,3.6034,3.6096,3.6105,3.613,3.6154,3.6159,3.604,3.6024,3.6009,3.5987,3.616,3.616,3.6281,3.6282,3.6283]},{"header":{"parameterUnit":"m.s-1","parameterCategory":1,"la1":30.2991,"la2":30.254,"lo1":-89.0895,"lo2":-89.0444,"dy":0.0017,"dx":0.0017,"nx":28,"ny":28,"refTime":"2025-07-31T03:00:00:Z","depth":0,"parameterNumber":3,"parameterNumberName":"V-component_of_WINDS"},"data":[0,0,0,0,0,0,0,0,0,0,0,0,0,0,0,0,0,0,0,0,0,0,0,0,0,0,0,0,0,0,0,0,0,0,0,0,0,0,0,0,0,0,0,0,0,0,0,0,0,0,0,0,0,0,0,0,0,0,-0.19,-0.19,0,-0.1838,-0.1838,-0.1837,-0.1825,-0.1826,-0.1826,-0.1827,-0.1755,-0.1753,-0.1751,0,0,0,0,0,0,0,0,0,0,0,0,0,-0.2001,-0.1999,-0.19,-0.19,-0.1899,-0.1839,-0.1838,-0.1837,-0.1825,-0.1826,-0.1826,-0.1827,-0.1756,-0.1753,-0.1751,0,0,0,0,0,0,0,0,0,0,0,0,0,-0.195,-0.1999,-0.19,-0.1886,-0.1884,-0.1839,-0.1838,-0.1837,-0.1825,-0.1826,-0.1826,-0.1827,-0.1757,-0.1754,-0.175,-0.1713,0,0,-0.1739,-0.1738,0,0,0,0,0,0,0,0,-0.1953,-0.1946,-0.1889,-0.1887,-0.1885,-0.184,-0.1847,-0.1795,-0.1825,-0.1847,-0.1827,-0.1827,-0.1783,-0.1777,-0.1763,-0.171,-0.1707,-0.1739,-0.1737,-0.1735,-0.1734,0,0,0,0,0,0,0,-0.1956,-0.1949,-0.1876,-0.1888,-0.1885,-0.188,-0.1874,-0.1837,-0.1811,-0.1845,-0.1844,-0.1837,-0.1781,-0.1767,-0.1762,-0.1705,-0.1739,-0.1736,-0.1734,-0.1732,-0.1616,-0.1615,0,0,0,0,0,0,-0.1964,-0.1952,-0.1878,-0.1874,-0.1922,-0.1878,-0.187,-0.1854,-0.1811,-0.1806,-0.1837,-0.1837,-0.1773,-0.1766,-0.1759,-0.1711,-0.1735,-0.1732,-0.173,-0.1617,-0.1616,-0.1615,0,0,0,0,0,0,-0.1966,-0.1957,-0.188,-0.1913,-0.1902,-0.1875,-0.1856,-0.1852,-0.1837,-0.1805,-0.18,-0.1827,-0.1773,-0.1764,-0.1725,-0.1709,-0.173,-0.1727,-0.1618,-0.1616,-0.1615,-0.1617,0,0,0,0,0,0,-0.1969,-0.1958,-0.1945,-0.1912,-0.1901,-0.1849,-0.1855,-0.185,-0.1832,-0.1832,-0.1795,-0.1789,-0.1773,-0.173,-0.1721,-0.1704,-0.1724,-0.1619,-0.1617,-0.1616,-0.1618,-0.1615,-0.1613,0,0,0,0,0,-0.1972,-0.1947,-0.1945,-0.1936,-0.1885,-0.1848,-0.1841,-0.1825,-0.1831,-0.1817,-0.1796,-0.179,-0.1713,-0.1726,-0.1716,-0.1698,-0.162,-0.1618,-0.1616,-0.1619,-0.1616,-0.1613,0,0,0,0,0,0,-0.1976,-0.1942,-0.1939,-0.1903,-0.1879,-0.1846,-0.1828,-0.1823,-0.1794,-0.1795,-0.1774,-0.1765,-0.1727,-0.1708,-0.1724,-0.1659,-0.1666,-0.1662,-0.1672,-0.1669,-0.1667,-0.1671,-0.1721,0,0,0,0,0,-0.1973,-0.1948,-0.1919,-0.189,-0.1878,-0.1855,-0.1839,-0.1829,-0.1801,-0.179,-0.1767,-0.1739,-0.1708,-0.1687,-0.1657,-0.1616,-0.1606,-0.1598,-0.1596,-0.1594,-0.159,-0.1564,-0.156,-0.1608,-0.1608,-0.1608,0,0,-0.1965,-0.1944,-0.1929,-0.189,-0.187,-0.1843,-0.1846,-0.1817,-0.1796,-0.1785,-0.1747,-0.1728,-0.1695,-0.1654,-0.1635,-0.1638,-0.1575,-0.1591,-0.159,-0.1587,-0.1562,-0.1557,-0.1553,-0.1606,-0.1606,-0.1607,0,0,-0.1937,-0.192,-0.1893,-0.1873,-0.1844,-0.1829,-0.1823,-0.1791,-0.1779,-0.1741,-0.1732,-0.1705,-0.1652,-0.1629,-0.161,-0.1574,-0.1566,-0.1564,-0.1552,-0.1527,-0.1524,-0.152,-0.1505,-0.15,-0.1561,-0.1561,-0.1561,0,-0.1931,-0.1892,-0.1879,-0.1851,-0.1833,-0.1824,-0.1795,-0.1776,-0.1737,-0.1724,-0.1728,-0.1662,-0.1639,-0.1592,-0.1583,-0.1569,-0.1559,-0.1568,-0.1526,-0.1522,-0.1519,-0.1504,-0.1499,-0.156,-0.1561,-0.1561,-0.1561,0,-0.1885,-0.1858,-0.1839,-0.1804,-0.1784,-0.1756,-0.1736,-0.1717,-0.1708,-0.1692,-0.1652,-0.1625,-0.1589,-0.1577,-0.1568,-0.1527,-0.153,-0.1531,-0.1537,-0.1514,-0.15,-0.1494,-0.156,-0.156,-0.156,-0.156,0,0,-0.1856,-0.1816,-0.1809,-0.1792,-0.176,-0.1737,-0.1707,-0.1674,-0.1657,-0.1631,-0.1603,-0.156,-0.156,-0.1538,-0.1526,-0.1505,-0.1476,-0.1508,-0.1507,-0.1501,-0.1428,-0.1426,-0.142,-0.1472,-0.1471,-0.147,-0.143,0,-0.1823,-0.1772,-0.176,-0.1715,-0.1688,-0.168,-0.1654,-0.1629,-0.1613,-0.1587,-0.1568,-0.1537,-0.154,-0.1527,-0.1506,-0.1484,-0.146,-0.1487,-0.1443,-0.1442,-0.145,-0.1413,-0.1412,-0.1375,-0.1424,-0.1424,-0.1423,0,-0.1778,-0.1753,-0.1706,-0.1676,-0.1665,-0.1642,-0.161,-0.1585,-0.1556,-0.1546,-0.1523,-0.1513,-0.1479,-0.1489,-0.144,-0.1458,-0.144,-0.1426,-0.1424,-0.1418,-0.143,-0.1404,-0.1363,-0.1357,-0.1414,-0.1415,-0.1416,0,-0.1759,-0.1714,-0.168,-0.1666,-0.1631,-0.1615,-0.1599,-0.1571,-0.1552,-0.1523,-0.151,-0.1477,-0.1458,-0.1432,-0.1412,-0.1422,-0.1364,-0.1373,-0.1352,-0.1352,-0.1338,-0.1339,-0.1292,-0.133,-0.133,-0.133,-0.133,0,-0.1723,-0.1694,-0.1671,-0.165,-0.1617,-0.1602,-0.1569,-0.1552,-0.1528,-0.1501,-0.1491,-0.1466,-0.1443,-0.1414,-0.1398,-0.1359,-0.135,-0.1339,-0.1335,-0.1339,-0.134,-0.1325,-0.1326,-0.1329,-0.1329,-0.1329,-0.1329,0,-0.1696,-0.168,-0.1642,-0.1613,-0.1604,-0.1581,-0.1554,-0.1532,-0.1516,-0.1483,-0.1474,-0.1448,-0.1413,-0.1392,-0.1347,-0.1336,-0.1292,-0.129,-0.1303,-0.13,-0.128,-0.1281,-0.122,-0.121,-0.1256,-0.1256,-0.1255,0,-0.1673,-0.1651,-0.1619,-0.1602,-0.1587,-0.1559,-0.154,-0.1524,-0.1504,-0.1469,-0.1451,-0.1416,-0.1387,-0.1331,-0.1307,-0.1272,-0.1267,-0.1248,-0.1261,-0.1266,-0.1264,-0.1265,-0.1262,-0.1245,-0.1245,-0.1244,-0.1244,0,-0.1633,-0.1626,-0.16,-0.1571,-0.1549,-0.1525,-0.1501,-0.1486,-0.1465,-0.1443,-0.1409,-0.1387,-0.1342,-0.1306,-0.127,-0.125,-0.1242,-0.1241,-0.1233,-0.1236,-0.1244,-0.1237,-0.1294,-0.1241,-0.1242,-0.1242,-0.1242,-0.1242,-0.1605,-0.1585,-0.156,-0.1531,-0.1512,-0.1489,-0.1467,-0.1449,-0.1421,-0.1385,-0.1377,-0.134,-0.131,-0.1261,-0.124,-0.1209,-0.1212,-0.1202,-0.1199,-0.1196,-0.1195,-0.1251,-0.1203,-0.1203,-0.1203,-0.1203,-0.1203,0,-0.1563,-0.1547,-0.1521,-0.1488,-0.1465,-0.1464,-0.1436,-0.1416,-0.1385,-0.1359,-0.1332,-0.1291,-0.1257,-0.123,-0.1194,-0.1174,-0.117,-0.1165,-0.1165,-0.116,-0.1196,-0.1205,-0.1169,-0.1169,-0.1169,-0.1169,-0.1169,-0.1169,-0.1538,-0.1504,-0.1494,-0.1449,-0.1432,-0.1398,-0.1382,-0.1361,-0.134,-0.1296,-0.1269,-0.1253,-0.1225,-0.1188,-0.1155,-0.1148,-0.1134,-0.1129,-0.1121,-0.1154,-0.1158,-0.1161,-0.117,-0.1127,-0.1127,-0.1088,-0.1087,-0.1087]}]]